Location: Kunchanapalle
(16.4623°N, 80.6176°E)
Time: 13:52:40
(UTC+00:00)

GPS 2-15 Rocket1 - Pass Details

Date: 13 August 2020
Orbit: 624 x 675 km, 19.8° (Epoch: 24 September)

Event Time Altitude Azimuth Distance (km) Brightness Sun altitude
Rises 13:37:54 0° 238° (WSW) 2,888 7.1 -8.8°
Reaches altitude 10° 13:40:22 10° 230° (SW) 1,978 6.1 -9.3°
Maximum altitude 13:44:41 39° 162° (SSE) 934 3.7 -10.3°
Enters shadow 13:48:08 15° 98° (E) 1,680 4.6 -11.1°
